DIAMOND GREEN

导读

DIAMOND GREEN是英国于2017年6月23日发射的环境监测卫星,国际标识为2017-036W。它采用绿色能源驱动,运行在近地太阳同步轨道,倾角约97.1°,轨道周期约87.6分钟。借助高分辨率遥感技术,可实时追踪森林覆盖率、碳排放与气候变化,为生态研究、碳中和推进提供科学支撑,已于2024年4月陨落。

Basic Information
目录编号:
42785
目录名称:
DIAMOND GREEN
国际标识:
2017-036W
轨道中心:
EARTH
卫星名称:
DIAMOND GREEN
卫星全名:
--
卫星状态:
已陨落 最后检测时间 2024-04-11
发射日期:
2017-06-23 UTC
国别 :
英国 (GB)
星等 :
--
Orbit Information
数据来源 国际轨道数据
星历时间: 2024-04-03T12:53:53+0800
轨道信息已过期832天
半长轴: 6531.841km
偏心率: 0.0009362
轨道倾角: 97.068°
近地点辐角 255.547°
升交点赤经 134.643°
平近点角 104.480°
近地点: 147.59km
远地点: 159.822km
周期: 87.561分钟
每日圈数: 16.445588
Detailed Information
使用方式:
暂无